Flag for U.S.A. Weather past 2 weeks in Dallas, Texas, U.S.A.

Now
80 °F

Partly sunny.


Feels Like: 82 °F
Forecast: 76 / 92 °F
Wind: 5 mph from East

Location: Dallas Love Field

Current Time: Jul 29, 2014 at 10:50:55 AM

Latest Report: Jul 29, 2014 at 9:53 AM


Visibility: 10 mi

Pressure: 30.12 "Hg

Humidity: 56%

Dew point: 63 °F

Location of DallasLocation

Historic Weather in Dallas — Graph

°F

Dallas temperature yesterday

Maximum temperature yesterday: 95 °F (at 1:53 PM)
Minimum temperature yesterday: 82 °F (at 11:53 PM)
Average temperature yesterday: 88 °F

Past Weeks' High & Low Weather Summary

 TemperatureHumidityPressure
High102 °F (Jul 27, 3:53 PM)93% (Jul 17, 9:53 AM)30.13 "Hg (Jul 17, 9:53 AM)
Low65 °F (Jul 18, 6:53 AM)22% (Jul 15, 3:53 PM)29.85 "Hg (Jul 16, 7:53 PM)
Average83 °F61%29.98 "Hg
* Reported Jul 14 9:53 AM — Jul 29 9:53 AM, Dallas, Weather by CustomWeather, © 2014

Note: Actual official high and low records may vary slightly from our data, if they occured in-between our weather recording intervals... More about our weather records

Advertising

Dallas weather history for previous 24 hours

 ConditionsComfort  
Time TempWeatherWind HumidityBarometerVisibility
9:53 AM
Jul 29
80 °FPartly sunny.5 mph56%30.12 "Hg10 mi
8:53 AM78 °FPartly sunny.5 mph60%30.13 "Hg10 mi
7:53 AM77 °FPartly sunny.5 mph62%30.11 "Hg10 mi
6:53 AM76 °FPassing clouds.3 mph60%30.10 "Hg10 mi
5:53 AM75 °FPassing clouds.3 mph60%30.09 "Hg10 mi
4:53 AM76 °FPassing clouds.3 mph58%30.07 "Hg10 mi
3:53 AM77 °FPassing clouds.No wind54%30.07 "Hg10 mi
2:53 AM79 °FPassing clouds.3 mph50%30.08 "Hg10 mi
1:53 AM80 °FPassing clouds.3 mph51%30.07 "Hg10 mi
12:53 AM81 °FPassing clouds.7 mph51%30.09 "Hg10 mi
11:53 PM
Jul 28
82 °FPassing clouds.7 mph51%30.09 "Hg10 mi
10:53 PM83 °FPassing clouds.8 mph50%30.08 "Hg10 mi
9:53 PM84 °FPartly cloudy.7 mph48%30.07 "Hg10 mi
8:53 PM86 °FBroken clouds.9 mph45%30.05 "Hg10 mi
7:53 PM88 °FBroken clouds.10 mph42%30.04 "Hg10 mi
6:53 PM90 °FBroken clouds.12 mph41%30.04 "Hg10 mi
5:53 PM92 °FPartly sunny.13 mph37%30.05 "Hg10 mi
5:01 PM93 °FBroken clouds.12 mph32%30.09 "Hg10 mi
4:53 PM92 °FBroken clouds.14 mph33%30.06 "Hg10 mi
3:53 PM93 °FBroken clouds.20 mph41%30.07 "Hg10 mi
2:53 PM95 °FBroken clouds.13 mph40%30.08 "Hg10 mi
1:53 PM95 °FBroken clouds.15 mph41%30.09 "Hg10 mi
12:53 PM94 °FBroken clouds.10 mph44%30.09 "Hg10 mi
11:53 AM92 °FBroken clouds.9 mph49%30.11 "Hg10 mi
10:53 AM90 °FBroken clouds.8 mph57%30.11 "Hg10 mi
Weather by CustomWeather, © 2014

See weather overviewHow to use our weather pages